| time (UTC) | temp F | wind direction | speed MPH | gust MPH | rain 1hr in | rain 24hr in | rain mn in | humidity % | barometer mb |
| 20260507095034 | 45 | 271 | 0.0 | 3.0 | 0.00 | 0.69 | 0.14 | 92 | 1005.4 |
| 20260507094549 | 45 | 0 | 0.0 | 4.0 | 0.00 | 0.69 | 0.14 | 92 | 1005.5 |
| 20260507094033 | 45 | 271 | 1.0 | 4.0 | 0.00 | 0.69 | 0.14 | 92 | 1005.8 |
| 20260507093533 | 45 | 271 | 0.0 | 3.0 | 0.00 | 0.69 | 0.14 | 92 | 1005.6 |
| 20260507093050 | 45 | 271 | 1.0 | 6.0 | 0.00 | 0.69 | 0.14 | 92 | 1005.8 |
| 20260507092535 | 45 | 271 | 2.0 | 6.0 | 0.00 | 0.69 | 0.14 | 92 | 1005.8 |
| 20260507092035 | 45 | 271 | 2.0 | 6.0 | 0.00 | 0.69 | 0.14 | 92 | 1005.8 |
| 20260507091547 | 45 | 271 | 2.0 | 4.0 | 0.00 | 0.69 | 0.14 | 92 | 1005.9 |
| 20260507091033 | 45 | 271 | 1.0 | 4.0 | 0.00 | 0.69 | 0.14 | 92 | 1005.8 |
| 20260507090532 | 45 | 271 | 1.0 | 4.0 | 0.00 | 0.69 | 0.14 | 92 | 1005.9 |
| 20260507090046 | 46 | 271 | 2.0 | 4.0 | 0.00 | 0.69 | 0.14 | 92 | 1006.0 |
| 20260507085533 | 46 | 271 | 2.0 | 4.0 | 0.00 | 0.69 | 0.14 | 92 | 1005.8 |
| 20260507085033 | 46 | 271 | 2.0 | 6.0 | 0.00 | 0.69 | 0.14 | 92 | 1005.9 |
| 20260507084543 | 46 | 271 | 2.0 | 6.0 | 0.00 | 0.69 | 0.14 | 92 | 1006.1 |
| 20260507084034 | 46 | 277 | 3.0 | 6.0 | 0.00 | 0.69 | 0.14 | 93 | 1005.7 |
| 20260507083533 | 46 | 259 | 3.0 | 7.0 | 0.00 | 0.69 | 0.14 | 92 | 1005.8 |
| 20260507083042 | 46 | 284 | 2.0 | 7.0 | 0.00 | 0.69 | 0.14 | 93 | 1005.3 |
| 20260507082534 | 46 | 259 | 1.0 | 4.0 | 0.00 | 0.69 | 0.14 | 93 | 1005.5 |
| 20260507082033 | 47 | 259 | 2.0 | 5.0 | 0.00 | 0.69 | 0.14 | 93 | 1005.3 |
| 20260507081547 | 47 | 259 | 2.0 | 6.0 | 0.00 | 0.69 | 0.14 | 93 | 1005.3 |
| 20260507081035 | 47 | 278 | 2.0 | 6.0 | 0.00 | 0.69 | 0.14 | 93 | 1005.4 |
| 20260507080539 | 47 | 278 | 2.0 | 6.0 | 0.00 | 0.69 | 0.14 | 94 | 1005.3 |
| 20260507080051 | 48 | 302 | 2.0 | 4.0 | 0.00 | 0.69 | 0.14 | 94 | 1005.5 |
| 20260507075533 | 48 | 302 | 0.0 | 5.0 | 0.00 | 0.69 | 0.14 | 94 | 1005.2 |
| 20260507075033 | 48 | 301 | 1.0 | 5.0 | 0.00 | 0.69 | 0.14 | 94 | 1005.3 |
| 20260507074546 | 48 | 301 | 3.0 | 9.0 | 0.00 | 0.69 | 0.14 | 94 | 1005.5 |
| 20260507074031 | 48 | 271 | 4.0 | 9.0 | 0.00 | 0.69 | 0.14 | 94 | 1005.5 |
| 20260507073533 | 48 | 315 | 2.0 | 7.0 | 0.00 | 0.69 | 0.14 | 94 | 1005.4 |
| 20260507073104 | 48 | 281 | 2.0 | 7.0 | 0.00 | 0.69 | 0.14 | 94 | 1005.7 |
| 20260507072533 | 48 | 281 | 3.0 | 7.0 | 0.00 | 0.69 | 0.14 | 94 | 1005.5 |
| 20260507072035 | 48 | 327 | 1.0 | 3.0 | 0.00 | 0.69 | 0.14 | 94 | 1005.1 |
| 20260507071544 | 49 | 327 | 1.0 | 2.0 | 0.00 | 0.69 | 0.14 | 94 | 1005.2 |
| 20260507071034 | 49 | 327 | 0.0 | 3.0 | 0.00 | 0.69 | 0.14 | 94 | 1005.2 |
| 20260507070535 | 49 | 327 | 1.0 | 3.0 | 0.00 | 0.69 | 0.14 | 94 | 1005.2 |
| 20260507070045 | 49 | 327 | 1.0 | 3.0 | 0.00 | 0.69 | 0.14 | 94 | 1005.3 |
| 20260507065536 | 49 | 327 | 0.0 | 4.0 | 0.00 | 0.69 | 0.14 | 94 | 1005.0 |
| 20260507065035 | 49 | 327 | 2.0 | 4.0 | 0.00 | 0.69 | 0.14 | 94 | 1005.0 |
| 20260507064559 | 49 | 327 | 2.0 | 4.0 | 0.00 | 0.69 | 0.14 | 94 | 1004.9 |
| 20260507064035 | 49 | 0 | 0.0 | 3.0 | 0.00 | 0.69 | 0.14 | 94 | 1004.7 |
| 20260507063531 | 49 | 0 | 1.0 | 5.0 | 0.00 | 0.69 | 0.14 | 94 | 1004.8 |
| 20260507063057 | 49 | 327 | 1.0 | 5.0 | 0.00 | 0.69 | 0.14 | 94 | 1004.8 |
| 20260507062533 | 49 | 300 | 3.0 | 5.0 | 0.01 | 0.69 | 0.14 | 94 | 1004.7 |
| 20260507062034 | 49 | 300 | 2.0 | 5.0 | 0.01 | 0.69 | 0.14 | 94 | 1004.6 |
| 20260507061547 | 49 | 300 | 2.0 | 4.0 | 0.01 | 0.69 | 0.14 | 94 | 1004.7 |
| 20260507061034 | 50 | 300 | 1.0 | 4.0 | 0.01 | 0.69 | 0.14 | 94 | 1004.6 |
| 20260507060535 | 50 | 300 | 2.0 | 4.0 | 0.02 | 0.69 | 0.14 | 94 | 1004.5 |
| 20260507060044 | 50 | 355 | 0.0 | 3.0 | 0.03 | 0.69 | 0.14 | 94 | 1004.7 |
| 20260507055533 | 50 | 355 | 1.0 | 5.0 | 0.05 | 0.69 | 0.14 | 94 | 1004.5 |
| 20260507055034 | 50 | 0 | 1.0 | 8.0 | 0.06 | 0.69 | 0.14 | 94 | 1004.3 |
| 20260507054542 | 50 | 348 | 2.0 | 8.0 | 0.06 | 0.69 | 0.14 | 94 | 1004.3 |
| 20260507054035 | 50 | 333 | 3.0 | 7.0 | 0.08 | 0.69 | 0.14 | 94 | 1004.3 |
| 20260507053534 | 50 | 332 | 2.0 | 6.0 | 0.10 | 0.69 | 0.14 | 95 | 1004.5 |
| 20260507053042 | 50 | 0 | 1.0 | 6.0 | 0.11 | 0.69 | 0.14 | 95 | 1004.6 |
| 20260507052532 | 50 | 317 | 2.0 | 7.0 | 0.11 | 0.68 | 0.13 | 95 | 1004.9 |
| 20260507052034 | 50 | 313 | 2.0 | 8.0 | 0.11 | 0.68 | 0.13 | 95 | 1004.7 |
| 20260507051549 | 51 | 333 | 4.0 | 8.0 | 0.11 | 0.68 | 0.13 | 95 | 1004.8 |
| 20260507051037 | 51 | 264 | 4.0 | 9.0 | 0.12 | 0.68 | 0.13 | 95 | 1004.7 |
| 20260507050533 | 51 | 22 | 2.0 | 9.0 | 0.11 | 0.67 | 0.12 | 95 | 1004.7 |
| 20260507050057 | 51 | 292 | 5.0 | 9.0 | 0.10 | 0.66 | 0.11 | 95 | 1004.8 |
| 20260507045531 | 51 | 285 | 3.0 | 9.0 | 0.10 | 0.64 | 0.09 | 95 | 1004.8 |
| 20260507045033 | 51 | 225 | 4.0 | 9.0 | 0.09 | 0.63 | 0.08 | 95 | 1004.9 |
| 20260507044551 | 51 | 205 | 2.0 | 7.0 | 0.08 | 0.62 | 0.07 | 95 | 1004.7 |
| 20260507044031 | 51 | 179 | 3.0 | 10.0 | 0.07 | 0.61 | 0.06 | 95 | 1004.9 |
| 20260507043535 | 52 | 192 | 4.0 | 10.0 | 0.05 | 0.58 | 0.04 | 95 | 1005.1 |
| 20260507043050 | 52 | 231 | 3.0 | 9.0 | 0.05 | 0.58 | 0.03 | 95 | 1004.7 |
| 20260507042535 | 52 | 277 | 3.0 | 10.0 | 0.04 | 0.57 | 0.02 | 95 | 1004.4 |
| 20260507042033 | 52 | 278 | 5.0 | 10.0 | 0.05 | 0.57 | 0.02 | 95 | 1004.4 |
| 20260507041547 | 52 | 296 | 3.0 | 8.0 | 0.05 | 0.57 | 0.02 | 95 | 1004.3 |
| 20260507041033 | 52 | 300 | 4.0 | 10.0 | 0.04 | 0.56 | 0.01 | 95 | 1004.5 |
| 20260507040534 | 52 | 276 | 4.0 | 10.0 | 0.04 | 0.56 | 0.01 | 95 | 1004.6 |
| 20260507040044 | 52 | 261 | 2.0 | 13.0 | 0.04 | 0.55 | 0.00 | 95 | 1004.3 |
| 20260507035533 | 53 | 269 | 5.0 | 13.0 | 0.03 | 0.54 | 0.54 | 95 | 1004.5 |
| 20260507035033 | 53 | 242 | 4.0 | 8.0 | 0.04 | 0.54 | 0.54 | 95 | 1004.5 |
| 20260507034557 | 53 | 206 | 4.0 | 8.0 | 0.04 | 0.54 | 0.54 | 96 | 1004.6 |
| 20260507034034 | 53 | 300 | 4.0 | 8.0 | 0.05 | 0.54 | 0.54 | 96 | 1004.3 |
| 20260507033536 | 53 | 272 | 2.0 | 8.0 | 0.05 | 0.54 | 0.54 | 96 | 1004.2 |
| 20260507033101 | 53 | 198 | 4.0 | 8.0 | 0.04 | 0.52 | 0.52 | 96 | 1004.1 |
| 20260507032534 | 53 | 190 | 3.0 | 8.0 | 0.04 | 0.52 | 0.52 | 95 | 1004.2 |
| 20260507032033 | 53 | 209 | 4.0 | 8.0 | 0.03 | 0.52 | 0.52 | 95 | 1004.2 |
| 20260507031549 | 53 | 222 | 5.0 | 8.0 | 0.03 | 0.52 | 0.52 | 95 | 1004.0 |
| 20260507031034 | 53 | 190 | 4.0 | 7.0 | 0.03 | 0.52 | 0.52 | 95 | 1004.0 |
| 20260507030536 | 53 | 209 | 3.0 | 5.0 | 0.04 | 0.52 | 0.52 | 95 | 1003.8 |
| 20260507030045 | 53 | 221 | 2.0 | 5.0 | 0.03 | 0.51 | 0.51 | 95 | 1003.9 |
| 20260507025535 | 53 | 243 | 2.0 | 9.0 | 0.03 | 0.51 | 0.51 | 95 | 1004.0 |
| 20260507025034 | 53 | 211 | 3.0 | 9.0 | 0.02 | 0.50 | 0.50 | 95 | 1004.0 |
| 20260507024554 | 53 | 172 | 4.0 | 9.0 | 0.02 | 0.50 | 0.50 | 95 | 1004.0 |
| 20260507024034 | 53 | 187 | 3.0 | 12.0 | 0.02 | 0.49 | 0.49 | 95 | 1003.9 |
| 20260507023538 | 53 | 194 | 5.0 | 12.0 | 0.02 | 0.49 | 0.49 | 95 | 1003.8 |
| 20260507023044 | 53 | 177 | 7.0 | 12.0 | 0.03 | 0.49 | 0.49 | 95 | 1004.0 |
| 20260507022534 | 53 | 221 | 7.0 | 14.0 | 0.03 | 0.49 | 0.49 | 95 | 1004.0 |
| 20260507022035 | 53 | 218 | 6.0 | 14.0 | 0.03 | 0.49 | 0.49 | 95 | 1004.1 |
| 20260507021542 | 53 | 228 | 7.0 | 16.0 | 0.03 | 0.49 | 0.49 | 95 | 1004.0 |
| 20260507021039 | 54 | 175 | 7.0 | 16.0 | 0.03 | 0.49 | 0.49 | 95 | 1003.8 |
| 20260507020534 | 54 | 225 | 7.0 | 13.0 | 0.02 | 0.48 | 0.48 | 95 | 1003.8 |
| 20260507020044 | 54 | 228 | 8.0 | 14.0 | 0.02 | 0.48 | 0.48 | 95 | 1003.8 |
| 20260507015533 | 54 | 188 | 7.0 | 14.0 | 0.02 | 0.48 | 0.48 | 95 | 1003.7 |
| 20260507015037 | 54 | 207 | 7.0 | 16.0 | 0.02 | 0.48 | 0.48 | 95 | 1003.7 |
| 20260507014542 | 54 | 179 | 8.0 | 16.0 | 0.01 | 0.47 | 0.47 | 95 | 1004.0 |
| 20260507014031 | 54 | 169 | 7.0 | 19.0 | 0.01 | 0.47 | 0.47 | 95 | 1003.9 |
| 20260507013534 | 54 | 177 | 7.0 | 19.0 | 0.01 | 0.47 | 0.47 | 95 | 1004.0 |
| 20260507013042 | 54 | 202 | 5.0 | 15.0 | 0.00 | 0.46 | 0.46 | 95 | 1004.0 |
| 20260507012534 | 54 | 157 | 6.0 | 17.0 | 0.00 | 0.46 | 0.46 | 95 | 1004.0 |
| 20260507012031 | 54 | 179 | 5.0 | 20.0 | 0.00 | 0.46 | 0.46 | 95 | 1004.0 |
| 20260507011543 | 54 | 208 | 10.0 | 20.0 | 0.00 | 0.46 | 0.46 | 95 | 1004.0 |
| 20260507011034 | 54 | 194 | 8.0 | 19.0 | 0.00 | 0.46 | 0.46 | 95 | 1004.2 |
| 20260507010535 | 54 | 150 | 8.0 | 19.0 | 0.00 | 0.46 | 0.46 | 95 | 1004.2 |
| 20260507010048 | 54 | 167 | 6.0 | 17.0 | 0.00 | 0.46 | 0.46 | 95 | 1004.3 |
| 20260507005532 | 54 | 175 | 7.0 | 18.0 | 0.00 | 0.47 | 0.46 | 95 | 1004.4 |
| 20260507005032 | 54 | 161 | 8.0 | 20.0 | 0.00 | 0.47 | 0.46 | 95 | 1004.4 |
| 20260507004554 | 54 | 183 | 10.0 | 20.0 | 0.00 | 0.47 | 0.46 | 95 | 1004.5 |
| 20260507004035 | 54 | 176 | 6.0 | 16.0 | 0.00 | 0.47 | 0.46 | 95 | 1004.4 |
| 20260507003535 | 54 | 197 | 8.0 | 18.0 | 0.00 | 0.47 | 0.46 | 95 | 1004.7 |
| 20260507003053 | 54 | 172 | 10.0 | 18.0 | 0.00 | 0.47 | 0.46 | 95 | 1004.6 |
| 20260507002531 | 54 | 182 | 7.0 | 17.0 | 0.00 | 0.47 | 0.46 | 95 | 1004.5 |
| 20260507002033 | 54 | 119 | 8.0 | 17.0 | 0.00 | 0.47 | 0.46 | 95 | 1004.5 |
| 20260507001606 | 54 | 177 | 7.0 | 17.0 | 0.00 | 0.47 | 0.46 | 94 | 1004.5 |
| 20260507001038 | 54 | 184 | 9.0 | 15.0 | 0.00 | 0.47 | 0.46 | 94 | 1004.5 |
| 20260507000536 | 54 | 183 | 6.0 | 15.0 | 0.00 | 0.47 | 0.46 | 94 | 1004.6 |
| 20260507000047 | 54 | 188 | 7.0 | 15.0 | 0.00 | 0.47 | 0.46 | 94 | 1004.6 |
| 20260506235533 | 54 | 99 | 8.0 | 14.0 | 0.00 | 0.47 | 0.46 | 94 | 1004.6 |
| 20260506235036 | 55 | 192 | 7.0 | 14.0 | 0.00 | 0.47 | 0.46 | 94 | 1004.6 |
| 20260506234557 | 55 | 147 | 5.0 | 15.0 | 0.00 | 0.47 | 0.46 | 94 | 1004.6 |
| 20260506234033 | 55 | 194 | 5.0 | 17.0 | 0.00 | 0.47 | 0.46 | 94 | 1004.7 |
| 20260506233533 | 55 | 207 | 5.0 | 17.0 | 0.00 | 0.47 | 0.46 | 94 | 1004.7 |
| 20260506233053 | 55 | 170 | 8.0 | 17.0 | 0.00 | 0.47 | 0.46 | 94 | 1004.8 |
| 20260506232535 | 55 | 174 | 6.0 | 15.0 | 0.01 | 0.47 | 0.46 | 94 | 1004.8 |
| 20260506232034 | 55 | 185 | 5.0 | 15.0 | 0.01 | 0.47 | 0.46 | 94 | 1004.7 |
| 20260506231540 | 55 | 177 | 8.0 | 18.0 | 0.01 | 0.47 | 0.46 | 94 | 1004.8 |
| 20260506231032 | 55 | 199 | 7.0 | 21.0 | 0.02 | 0.47 | 0.46 | 94 | 1005.0 |
| 20260506230532 | 55 | 105 | 9.0 | 21.0 | 0.05 | 0.47 | 0.46 | 94 | 1004.8 |
| 20260506230054 | 54 | 148 | 8.0 | 25.0 | 0.07 | 0.47 | 0.46 | 94 | 1005.0 |
| 20260506225531 | 54 | 181 | 9.0 | 27.0 | 0.08 | 0.47 | 0.46 | 94 | 1005.0 |
| 20260506225033 | 54 | 200 | 11.0 | 27.0 | 0.10 | 0.47 | 0.46 | 94 | 1005.1 |
| 20260506224557 | 54 | 186 | 7.0 | 17.0 | 0.12 | 0.47 | 0.46 | 94 | 1005.1 |
| 20260506224034 | 54 | 202 | 7.0 | 13.0 | 0.13 | 0.47 | 0.46 | 94 | 1005.1 |
| 20260506223534 | 54 | 199 | 4.0 | 19.0 | 0.13 | 0.47 | 0.46 | 94 | 1005.3 |
| 20260506223046 | 54 | 203 | 10.0 | 27.0 | 0.13 | 0.47 | 0.46 | 93 | 1005.3 |
| 20260506222533 | 54 | 174 | 11.0 | 27.0 | 0.12 | 0.46 | 0.45 | 93 | 1005.4 |
| 20260506222034 | 54 | 188 | 8.0 | 20.0 | 0.13 | 0.46 | 0.45 | 93 | 1005.5 |
| 20260506221548 | 54 | 200 | 9.0 | 19.0 | 0.12 | 0.45 | 0.44 | 93 | 1005.4 |
| 20260506221032 | 54 | 185 | 9.0 | 21.0 | 0.12 | 0.44 | 0.43 | 93 | 1005.5 |
| 20260506220534 | 54 | 148 | 13.0 | 21.0 | 0.10 | 0.42 | 0.41 | 93 | 1005.4 |
| 20260506220054 | 54 | 173 | 10.0 | 22.0 | 0.09 | 0.40 | 0.39 | 93 | 1005.5 |
| 20260506215534 | 54 | 190 | 10.0 | 22.0 | 0.10 | 0.39 | 0.38 | 93 | 1005.5 |
| 20260506215031 | 54 | 165 | 9.0 | 20.0 | 0.09 | 0.36 | 0.35 | 93 | 1005.6 |
| 20260506214545 | 54 | 186 | 6.0 | 18.0 | 0.09 | 0.35 | 0.34 | 93 | 1005.5 |
| 20260506214033 | 54 | 194 | 5.0 | 20.0 | 0.09 | 0.34 | 0.33 | 93 | 1005.5 |
| 20260506213532 | 54 | 169 | 9.0 | 20.0 | 0.10 | 0.34 | 0.33 | 93 | 1005.6 |
| 20260506213044 | 54 | 139 | 7.0 | 19.0 | 0.11 | 0.34 | 0.33 | 93 | 1005.7 |
| 20260506212534 | 54 | 148 | 10.0 | 21.0 | 0.12 | 0.34 | 0.33 | 93 | 1005.6 |
| 20260506212033 | 54 | 162 | 11.0 | 21.0 | 0.12 | 0.33 | 0.32 | 93 | 1005.6 |
| 20260506211551 | 54 | 162 | 11.0 | 20.0 | 0.12 | 0.33 | 0.32 | 93 | 1005.5 |
| 20260506211032 | 54 | 184 | 8.0 | 20.0 | 0.12 | 0.32 | 0.31 | 93 | 1005.5 |
| 20260506210533 | 54 | 165 | 7.0 | 21.0 | 0.13 | 0.32 | 0.31 | 93 | 1005.5 |
| 20260506210051 | 54 | 150 | 10.0 | 21.0 | 0.13 | 0.31 | 0.30 | 93 | 1005.5 |
| 20260506205538 | 54 | 178 | 5.0 | 16.0 | 0.11 | 0.29 | 0.28 | 93 | 1005.7 |
| 20260506205037 | 55 | 186 | 6.0 | 17.0 | 0.10 | 0.27 | 0.26 | 93 | 1005.7 |
| 20260506204542 | 55 | 161 | 8.0 | 16.0 | 0.10 | 0.26 | 0.25 | 93 | 1005.6 |
| 20260506204036 | 55 | 189 | 6.0 | 16.0 | 0.09 | 0.25 | 0.24 | 93 | 1005.7 |
| 20260506203534 | 55 | 194 | 8.0 | 16.0 | 0.09 | 0.23 | 0.22 | 93 | 1005.6 |
| 20260506203044 | 55 | 176 | 8.0 | 18.0 | 0.10 | 0.23 | 0.22 | 92 | 1005.6 |
| 20260506202533 | 55 | 186 | 9.0 | 18.0 | 0.10 | 0.22 | 0.21 | 92 | 1005.8 |
| 20260506202033 | 55 | 178 | 5.0 | 12.0 | 0.11 | 0.21 | 0.20 | 93 | 1005.8 |
| 20260506201546 | 55 | 207 | 4.0 | 22.0 | 0.13 | 0.21 | 0.20 | 92 | 1005.8 |
| 20260506201037 | 55 | 143 | 7.0 | 22.0 | 0.13 | 0.20 | 0.19 | 92 | 1005.8 |
| 20260506200537 | 55 | 165 | 9.0 | 17.0 | 0.13 | 0.19 | 0.18 | 92 | 1005.7 |
| 20260506200048 | 55 | 192 | 7.0 | 18.0 | 0.13 | 0.18 | 0.17 | 92 | 1005.8 |
| 20260506195536 | 55 | 200 | 10.0 | 18.0 | 0.14 | 0.18 | 0.17 | 92 | 1005.8 |
| 20260506195036 | 55 | 161 | 10.0 | 21.0 | 0.14 | 0.17 | 0.16 | 92 | 1005.8 |
| 20260506194552 | 55 | 207 | 11.0 | 22.0 | 0.14 | 0.16 | 0.15 | 92 | 1006.0 |
| 20260506194037 | 55 | 194 | 10.0 | 22.0 | 0.15 | 0.16 | 0.15 | 92 | 1006.2 |
| 20260506193537 | 55 | 191 | 8.0 | 16.0 | 0.13 | 0.14 | 0.13 | 91 | 1006.2 |
| 20260506193051 | 55 | 172 | 7.0 | 14.0 | 0.12 | 0.13 | 0.12 | 91 | 1006.4 |
| 20260506192536 | 55 | 173 | 6.0 | 10.0 | 0.10 | 0.11 | 0.10 | 91 | 1006.6 |
| 20260506192037 | 55 | 155 | 4.0 | 10.0 | 0.08 | 0.09 | 0.08 | 90 | 1006.6 |
| 20260506191546 | 55 | 194 | 6.0 | 13.0 | 0.07 | 0.08 | 0.07 | 90 | 1006.9 |
| 20260506191033 | 56 | 212 | 6.0 | 14.0 | 0.06 | 0.07 | 0.06 | 90 | 1006.7 |
| 20260506190533 | 56 | 156 | 5.0 | 14.0 | 0.05 | 0.06 | 0.05 | 89 | 1006.7 |
| 20260506190044 | 56 | 164 | 6.0 | 12.0 | 0.04 | 0.05 | 0.04 | 88 | 1006.6 |
| 20260506185536 | 56 | 134 | 7.0 | 12.0 | 0.03 | 0.04 | 0.03 | 87 | 1006.4 |
| 20260506185036 | 57 | 163 | 6.0 | 12.0 | 0.02 | 0.03 | 0.02 | 86 | 1006.2 |
| 20260506184553 | 57 | 168 | 4.0 | 13.0 | 0.01 | 0.02 | 0.01 | 85 | 1006.4 |
| 20260506184037 | 57 | 172 | 8.0 | 13.0 | 0.00 | 0.01 | 0.00 | 84 | 1006.5 |
| 20260506183541 | 58 | 163 | 7.0 | 13.0 | 0.00 | 0.01 | 0.00 | 83 | 1006.6 |
| 20260506183056 | 58 | 227 | 6.0 | 13.0 | 0.00 | 0.01 | 0.00 | 81 | 1006.5 |
| 20260506182537 | 59 | 133 | 5.0 | 13.0 | 0.00 | 0.01 | 0.00 | 81 | 1006.5 |
| 20260506182036 | 59 | 200 | 6.0 | 15.0 | 0.00 | 0.01 | 0.00 | 80 | 1006.5 |
| 20260506181600 | 60 | 185 | 5.0 | 15.0 | 0.00 | 0.01 | 0.00 | 80 | 1006.4 |
| 20260506181036 | 60 | 153 | 6.0 | 12.0 | 0.00 | 0.01 | 0.00 | 79 | 1006.4 |
| 20260506180537 | 60 | 209 | 5.0 | 12.0 | 0.00 | 0.01 | 0.00 | 80 | 1006.4 |
| 20260506180048 | 60 | 170 | 5.0 | 12.0 | 0.00 | 0.01 | 0.00 | 79 | 1006.5 |
| 20260506175535 | 60 | 155 | 7.0 | 16.0 | 0.00 | 0.01 | 0.00 | 79 | 1006.5 |
| 20260506175036 | 60 | 162 | 5.0 | 16.0 | 0.00 | 0.01 | 0.00 | 80 | 1006.6 |
| 20260506174548 | 60 | 174 | 7.0 | 18.0 | 0.00 | 0.01 | 0.00 | 79 | 1006.7 |
| 20260506174039 | 60 | 150 | 6.0 | 18.0 | 0.00 | 0.01 | 0.00 | 79 | 1006.9 |
| 20260506173537 | 60 | 211 | 8.0 | 17.0 | 0.00 | 0.01 | 0.00 | 79 | 1006.8 |
| 20260506173116 | 61 | 166 | 8.0 | 17.0 | 0.00 | 0.01 | 0.00 | 79 | 1006.9 |
| 20260506172536 | 61 | 107 | 6.0 | 12.0 | 0.00 | 0.01 | 0.00 | 78 | 1007.1 |
| 20260506172036 | 61 | 163 | 5.0 | 9.0 | 0.00 | 0.01 | 0.00 | 78 | 1007.2 |
| 20260506171555 | 61 | 199 | 4.0 | 15.0 | 0.00 | 0.01 | 0.00 | 79 | 1007.3 |
| 20260506171036 | 61 | 186 | 5.0 | 17.0 | 0.00 | 0.01 | 0.00 | 79 | 1007.4 |
| 20260506170537 | 61 | 144 | 5.0 | 17.0 | 0.00 | 0.01 | 0.00 | 79 | 1007.6 |
| 20260506165537 | 61 | 180 | 5.0 | 15.0 | 0.00 | 0.01 | 0.00 | 79 | 1007.7 |
| 20260506165037 | 61 | 115 | 7.0 | 12.0 | 0.00 | 0.01 | 0.00 | 80 | 1007.8 |
| 20260506164550 | 60 | 180 | 4.0 | 10.0 | 0.00 | 0.01 | 0.00 | 80 | 1007.7 |
| 20260506164036 | 60 | 110 | 5.0 | 11.0 | 0.00 | 0.01 | 0.00 | 80 | 1007.8 |
| 20260506163535 | 60 | 132 | 6.0 | 12.0 | 0.00 | 0.01 | 0.00 | 80 | 1007.9 |
| 20260506163045 | 60 | 157 | 6.0 | 12.0 | 0.00 | 0.01 | 0.00 | 80 | 1008.0 |
| 20260506162537 | 60 | 169 | 7.0 | 13.0 | 0.00 | 0.01 | 0.00 | 80 | 1008.1 |
| 20260506162037 | 60 | 182 | 6.0 | 13.0 | 0.00 | 0.01 | 0.00 | 80 | 1008.1 |
| 20260506161551 | 60 | 151 | 6.0 | 13.0 | 0.00 | 0.01 | 0.00 | 80 | 1008.3 |
| 20260506161036 | 60 | 159 | 5.0 | 15.0 | 0.00 | 0.01 | 0.00 | 80 | 1008.2 |
| 20260506160536 | 60 | 189 | 7.0 | 15.0 | 0.00 | 0.01 | 0.00 | 80 | 1008.3 |
| 20260506160058 | 60 | 191 | 6.0 | 14.0 | 0.00 | 0.01 | 0.00 | 80 | 1008.3 |
| 20260506155534 | 60 | 215 | 6.0 | 14.0 | 0.00 | 0.01 | 0.00 | 80 | 1008.5 |
| 20260506155036 | 60 | 175 | 6.0 | 12.0 | 0.00 | 0.01 | 0.00 | 80 | 1008.6 |
| 20260506154554 | 60 | 152 | 4.0 | 12.0 | 0.00 | 0.01 | 0.00 | 80 | 1008.7 |
| 20260506154034 | 60 | 174 | 6.0 | 16.0 | 0.00 | 0.01 | 0.00 | 80 | 1008.5 |
| 20260506153534 | 60 | 132 | 9.0 | 16.0 | 0.00 | 0.01 | 0.00 | 79 | 1008.6 |
| 20260506153044 | 60 | 177 | 7.0 | 16.0 | 0.00 | 0.01 | 0.00 | 79 | 1008.6 |
| 20260506152537 | 60 | 131 | 7.0 | 13.0 | 0.00 | 0.01 | 0.00 | 79 | 1008.3 |
| 20260506152039 | 60 | 181 | 5.0 | 13.0 | 0.00 | 0.01 | 0.00 | 81 | 1008.5 |
| 20260506151546 | 60 | 154 | 4.0 | 12.0 | 0.00 | 0.01 | 0.00 | 80 | 1008.5 |
| 20260506151034 | 60 | 169 | 7.0 | 14.0 | 0.00 | 0.01 | 0.00 | 80 | 1008.4 |
| 20260506150534 | 60 | 155 | 6.0 | 14.0 | 0.00 | 0.01 | 0.00 | 79 | 1008.3 |
| 20260506150049 | 60 | 168 | 7.0 | 14.0 | 0.00 | 0.01 | 0.00 | 80 | 1008.3 |
| 20260506145538 | 60 | 200 | 9.0 | 14.0 | 0.00 | 0.01 | 0.00 | 79 | 1008.2 |
| 20260506145035 | 60 | 205 | 5.0 | 11.0 | 0.00 | 0.01 | 0.00 | 80 | 1008.1 |
| 20260506144551 | 60 | 119 | 6.0 | 14.0 | 0.00 | 0.01 | 0.00 | 79 | 1007.9 |
| 20260506144034 | 60 | 198 | 6.0 | 14.0 | 0.00 | 0.01 | 0.00 | 79 | 1008.1 |
| 20260506143534 | 60 | 130 | 6.0 | 14.0 | 0.00 | 0.01 | 0.00 | 79 | 1008.2 |
| 20260506143046 | 60 | 151 | 7.0 | 13.0 | 0.00 | 0.01 | 0.00 | 79 | 1008.4 |
| 20260506142535 | 60 | 156 | 4.0 | 11.0 | 0.00 | 0.01 | 0.00 | 79 | 1008.5 |
| 20260506142038 | 60 | 192 | 4.0 | 11.0 | 0.00 | 0.01 | 0.00 | 80 | 1008.6 |
| 20260506141545 | 59 | 185 | 5.0 | 11.0 | 0.00 | 0.01 | 0.00 | 79 | 1008.8 |
| 20260506141035 | 59 | 198 | 2.0 | 9.0 | 0.00 | 0.01 | 0.00 | 80 | 1008.8 |
| 20260506140535 | 59 | 209 | 4.0 | 10.0 | 0.00 | 0.01 | 0.00 | 80 | 1009.1 |
| 20260506140046 | 59 | 183 | 5.0 | 11.0 | 0.00 | 0.01 | 0.00 | 80 | 1008.9 |
| 20260506135535 | 59 | 178 | 5.0 | 11.0 | 0.00 | 0.01 | 0.00 | 80 | 1008.9 |
| 20260506135034 | 59 | 207 | 5.0 | 10.0 | 0.00 | 0.01 | 0.00 | 80 | 1009.0 |
| 20260506134548 | 59 | 159 | 3.0 | 7.0 | 0.00 | 0.01 | 0.00 | 80 | 1009.0 |
| 20260506134034 | 58 | 113 | 4.0 | 7.0 | 0.00 | 0.01 | 0.00 | 80 | 1008.9 |
| 20260506133534 | 58 | 204 | 5.0 | 7.0 | 0.00 | 0.01 | 0.00 | 79 | 1009.0 |
| 20260506133041 | 58 | 202 | 3.0 | 5.0 | 0.00 | 0.01 | 0.00 | 80 | 1009.0 |
| 20260506132535 | 58 | 168 | 2.0 | 7.0 | 0.00 | 0.01 | 0.00 | 79 | 1009.0 |
| 20260506132037 | 58 | 171 | 3.0 | 7.0 | 0.00 | 0.01 | 0.00 | 79 | 1008.9 |
| 20260506131558 | 58 | 182 | 3.0 | 8.0 | 0.00 | 0.01 | 0.00 | 79 | 1008.8 |
| 20260506131034 | 58 | 169 | 4.0 | 8.0 | 0.00 | 0.01 | 0.00 | 79 | 1008.9 |
| 20260506130535 | 58 | 188 | 1.0 | 7.0 | 0.00 | 0.01 | 0.00 | 80 | 1008.8 |
| 20260506130053 | 57 | 203 | 1.0 | 7.0 | 0.00 | 0.01 | 0.00 | 81 | 1008.7 |
| 20260506125533 | 57 | 175 | 2.0 | 7.0 | 0.00 | 0.01 | 0.00 | 80 | 1008.8 |
| 20260506125031 | 57 | 192 | 0.0 | 3.0 | 0.00 | 0.01 | 0.00 | 81 | 1009.0 |
| 20260506124546 | 56 | 175 | 1.0 | 4.0 | 0.00 | 0.01 | 0.00 | 82 | 1009.0 |
| 20260506124035 | 56 | 147 | 0.0 | 5.0 | 0.00 | 0.01 | 0.00 | 82 | 1008.9 |
| 20260506123536 | 56 | 97 | 0.0 | 7.0 | 0.00 | 0.01 | 0.00 | 82 | 1008.9 |
| 20260506123044 | 56 | 135 | 0.0 | 7.0 | 0.00 | 0.01 | 0.00 | 83 | 1009.1 |
| 20260506122535 | 55 | 99 | 2.0 | 7.0 | 0.00 | 0.01 | 0.00 | 82 | 1009.1 |
| 20260506122032 | 55 | 152 | 3.0 | 7.0 | 0.00 | 0.01 | 0.00 | 82 | 1009.1 |
| 20260506121541 | 55 | 161 | 0.0 | 8.0 | 0.00 | 0.01 | 0.00 | 82 | 1009.5 |
| 20260506121034 | 55 | 0 | 0.0 | 8.0 | 0.00 | 0.01 | 0.00 | 82 | 1009.4 |
| 20260506120536 | 55 | 136 | 4.0 | 8.0 | 0.00 | 0.01 | 0.00 | 83 | 1009.4 |
| 20260506120053 | 55 | 132 | 1.0 | 8.0 | 0.00 | 0.01 | 0.00 | 83 | 1009.3 |
| 20260506115534 | 55 | 163 | 3.0 | 8.0 | 0.00 | 0.01 | 0.00 | 83 | 1009.4 |
| 20260506115032 | 55 | 102 | 3.0 | 8.0 | 0.00 | 0.01 | 0.00 | 83 | 1009.5 |
| 20260506114546 | 54 | 123 | 3.0 | 8.0 | 0.00 | 0.01 | 0.00 | 83 | 1009.7 |
| 20260506114035 | 54 | 177 | 3.0 | 8.0 | 0.00 | 0.01 | 0.00 | 83 | 1009.6 |
| 20260506113534 | 54 | 155 | 3.0 | 8.0 | 0.00 | 0.01 | 0.00 | 83 | 1009.7 |
| 20260506113051 | 54 | 166 | 2.0 | 6.0 | 0.00 | 0.01 | 0.00 | 84 | 1009.7 |
| 20260506112535 | 54 | 0 | 1.0 | 7.0 | 0.00 | 0.01 | 0.00 | 84 | 1009.9 |
| 20260506112035 | 53 | 148 | 2.0 | 7.0 | 0.00 | 0.01 | 0.00 | 84 | 1009.9 |
| 20260506111545 | 53 | 136 | 3.0 | 7.0 | 0.00 | 0.01 | 0.00 | 84 | 1009.7 |
| 20260506111036 | 53 | 189 | 3.0 | 7.0 | 0.00 | 0.01 | 0.00 | 84 | 1009.7 |
| 20260506110535 | 53 | 193 | 1.0 | 6.0 | 0.00 | 0.01 | 0.00 | 84 | 1009.7 |
| 20260506110103 | 53 | 109 | 2.0 | 6.0 | 0.00 | 0.01 | 0.00 | 84 | 1009.5 |
| 20260506105531 | 53 | 91 | 0.0 | 6.0 | 0.00 | 0.01 | 0.00 | 84 | 1009.5 |
| 20260506105038 | 53 | 127 | 1.0 | 3.0 | 0.00 | 0.01 | 0.00 | 85 | 1009.5 |
| 20260506104549 | 53 | 0 | 0.0 | 1.0 | 0.00 | 0.01 | 0.00 | 85 | 1009.4 |
| 20260506104037 | 53 | 0 | 0.0 | 2.0 | 0.00 | 0.01 | 0.00 | 85 | 1009.5 |
| 20260506103537 | 53 | 0 | 0.0 | 3.0 | 0.00 | 0.01 | 0.00 | 85 | 1009.5 |
| 20260506103044 | 52 | 0 | 0.0 | 3.0 | 0.00 | 0.01 | 0.00 | 85 | 1009.4 |
| 20260506102537 | 52 | 65 | 1.0 | 3.0 | 0.00 | 0.01 | 0.00 | 85 | 1009.5 |
| 20260506102035 | 52 | 0 | 0.0 | 4.0 | 0.00 | 0.01 | 0.00 | 85 | 1009.5 |
| 20260506101549 | 52 | 0 | 0.0 | 4.0 | 0.00 | 0.01 | 0.00 | 85 | 1009.5 |
| 20260506101035 | 52 | 95 | 0.0 | 5.0 | 0.00 | 0.01 | 0.00 | 85 | 1009.5 |
| 20260506100538 | 52 | 95 | 0.0 | 6.0 | 0.00 | 0.01 | 0.00 | 85 | 1009.5 |
| 20260506100043 | 52 | 148 | 2.0 | 6.0 | 0.00 | 0.01 | 0.00 | 85 | 1009.6 |
| 20260506095534 | 52 | 147 | 1.0 | 5.0 | 0.00 | 0.01 | 0.00 | 86 | 1009.7 |